Location: Castro Valley
(37.6940°N, 122.0850°W)
Time: 00:46:55
(UTC-07:00)

Amateur Radio Satellites - All Passes

Search period start: 28 June 2016 00:16
Search period end: 29 June 2016 00:16
Location: Castro Valley, 37.6940°N, 122.0850°W

Satellite Date Start Highest point End Downlink Frequencies (MHz)
Time Altitude Azimuth
SO-50 28 Jun 00:19:24 00:22:38 18° 45° (NE) 00:25:47 436.795
NANOSAT C BR1 28 Jun 00:27:21 00:31:30 52° 100° (E) 00:35:39 145.865
CUBEBUG 1 28 Jun 00:28:45 00:32:58 47° 261° (W) 00:37:11 437.445
QB50P1 28 Jun 00:29:51 00:34:05 60° 101° (E) 00:38:17 145.935-145.965
POPSAT HIP 1 28 Jun 00:32:59 00:37:13 64° 101° (E) 00:41:28 437.405
VELOX 1 28 Jun 00:34:51 00:39:04 44° 261° (W) 00:43:18 145.980
Cosmos 2504 28 Jun 00:44:38 00:52:08 30° 70° (ENE) 00:59:21 435.465 / 435.565
QB50P2 28 Jun 00:45:06 00:49:23 84° 282° (WNW) 00:53:39 145.880/145.840
ANTELSAT 28 Jun 00:45:59 00:48:56 17° 294° (WNW) 00:51:55 437.575/2403.000
POLYITAN 1 28 Jun 00:47:43 00:52:00 82° 286° (WNW) 00:56:18 437.675
DUCHIFAT 1 28 Jun 00:48:13 00:52:29 89° 101° (ESE) 00:56:43 145.980
YUBILEINY 28 Jun 01:03:44 01:12:32 74° 267° (W) 01:21:20 435.215
TISAT 1 28 Jun 01:09:52 01:13:49 44° 73° (ENE) 01:17:46 437.305
ESTCUBE 1 28 Jun 01:11:22 01:13:11 12° 269° (W) 01:15:00 437.505/2401.250
AISAT 28 Jun 01:17:38 01:20:07 15° 267° (W) 01:22:38 437.250
SWISSCUBE 28 Jun 01:18:37 01:20:44 13° 63° (ENE) 01:22:52 437.505
UKube-1 28 Jun 01:20:33 01:23:53 22° 265° (W) 01:27:13 .
SPROUT 28 Jun 01:23:00 01:26:43 29° 264° (W) 01:30:27 437.525
JAS-2 28 Jun 01:41:45 01:47:20 64° 101° (E) 01:52:29 435.910
DX 1 28 Jun 01:41:51 01:42:45 11° 269° (W) 01:43:39 434.975-435.025
BEESAT 28 Jun 01:42:24 01:45:54 21° 66° (ENE) 01:49:24 436.000
ITUPSAT 1 28 Jun 01:42:59 01:46:29 21° 66° (ENE) 01:50:00 437.325
BUGSAT 1 28 Jun 01:47:23 01:51:14 41° 287° (WNW) 01:55:07 437.445
SO-50 28 Jun 01:58:56 02:03:27 54° 243° (WSW) 02:07:50 436.795
NANOSAT C BR1 28 Jun 02:04:57 02:06:46 13° 295° (WNW) 02:08:34 145.865
QB50P1 28 Jun 02:08:02 02:09:19 11° 296° (WNW) 02:10:35 145.935-145.965
Cosmos 2491 28 Jun 02:10:41 02:19:09 51° 283° (WNW) 02:27:37 435.465 / 435.565
POPSAT HIP 1 28 Jun 02:11:37 02:12:27 10° 296° (WNW) 02:13:17 437.405
O/OREOS (USA 219) 28 Jun 02:20:09 02:23:21 19° 101° (E) 02:26:33 437.305
PCSat 28 Jun 02:20:25 02:25:39 52° 113° (ESE) 02:30:55 145.827
BEESAT 3 28 Jun 02:36:44 02:40:21 37° 115° (ESE) 02:43:59 437.485
Cosmos 2504 28 Jun 02:37:19 02:45:58 59° 270° (W) 02:54:13 435.465 / 435.565
Oscar 19 28 Jun 02:39:21 02:44:30 84° 104° (ESE) 02:49:37 437.125/150
TISAT 1 28 Jun 02:47:41 02:49:40 13° 268° (W) 02:51:39 437.305
Gurwin Techsat 1B 28 Jun 02:51:13 02:56:20 45° 99° (E) 03:01:25 435.225
SWISSCUBE 28 Jun 02:53:11 02:57:56 66° 258° (WSW) 03:02:43 437.505
ITAMSAT 1 28 Jun 03:01:35 03:05:16 19° 94° (E) 03:08:55 435.822/435.867
YUBILEINY 28 Jun 03:04:58 03:07:40 12° 285° (WNW) 03:10:23 435.215
BEESAT 2 28 Jun 03:13:06 03:16:56 52° 116° (ESE) 03:20:48 435.950
STARS 28 Jun 03:18:12 03:19:08 11° 63° (ENE) 03:20:04 437.465
BEESAT 28 Jun 03:18:56 03:23:23 39° 262° (W) 03:27:52 436.000
ITUPSAT 1 28 Jun 03:19:32 03:24:01 39° 261° (W) 03:28:33 437.325
JAS-2 28 Jun 03:28:37 03:31:42 15° 300° (WNW) 03:34:40 435.910
AIST 1 28 Jun 03:46:13 03:48:33 14° 72° (ENE) 03:50:51
O/OREOS (USA 219) 28 Jun 03:58:22 04:02:28 35° 296° (WNW) 04:06:35 437.305
MOZHAYETS 4 28 Jun 04:02:52 04:07:25 61° 75° (ENE) 04:12:00
PCSat 28 Jun 04:05:11 04:09:21 22° 310° (NW) 04:13:33 145.827
BEESAT 3 28 Jun 04:15:23 04:18:09 18° 311° (NW) 04:20:56 437.485
KKS-1 28 Jun 04:16:51 04:21:16 80° 257° (WSW) 04:25:42 437.445
Oscar 19 28 Jun 04:21:34 04:23:04 11° 299° (WNW) 04:24:35 437.125/150
Gurwin Techsat 1B 28 Jun 04:32:00 04:35:55 21° 295° (WNW) 04:39:51 435.225
AO-7 28 Jun 04:35:15 04:43:27 55° 103° (ESE) 04:51:34 29.400- 29.500
ITAMSAT 1 28 Jun 04:39:55 04:44:56 47° 289° (WNW) 04:49:54 435.822/435.867
STARS 28 Jun 04:50:35 04:54:54 67° 258° (WSW) 04:59:15 437.465
BEESAT 2 28 Jun 04:52:50 04:55:04 14° 314° (NW) 04:57:19 435.950
GONETS M04 28 Jun 05:05:22 05:12:43 29° 71° (ENE) 05:20:02
AIST 1 28 Jun 05:22:21 05:26:19 40° 268° (W) 05:30:18
Cosmos 2499 28 Jun 05:22:55 05:29:50 25° 68° (ENE) 05:36:25 435.465 / 435.565
AIST 2 28 Jun 05:28:10 05:32:16 81° 120° (ESE) 05:36:25 435.215
CUBESAT XI-V 28 Jun 05:28:57 05:33:34 58° 74° (ENE) 05:38:11 437.345
HORYU 2 28 Jun 05:35:14 05:39:27 38° 99° (E) 05:43:38 437.375
MOZHAYETS 4 28 Jun 05:43:23 05:44:57 11° 270° (W) 05:46:31
AO-85 28 Jun 05:50:55 05:53:30 15° 43° (NE) 05:55:58 145.980
NOAA 15 28 Jun 06:08:00 06:11:23 17° 93° (E) 06:14:46 137.62
PHONESAT 2.4 28 Jun 06:08:10 06:09:43 13° 145° (SE) 06:11:16 2401.200-2431.200
AO-7 28 Jun 06:28:38 06:35:47 33° 300° (WNW) 06:42:57 29.400- 29.500
NOAA 18 28 Jun 06:33:22 06:37:51 25° 95° (E) 06:42:19 137.9125
STRAND 1 28 Jun 06:39:01 06:43:03 24° 66° (ENE) 06:47:06 437.568
CUSAT 1 28 Jun 06:42:19 06:47:52 22° 88° (E) 06:52:55 437.405
Cubesat XI-IV 28 Jun 06:42:34 06:47:08 27° 96° (E) 06:51:39 437.490
GONETS M04 28 Jun 07:01:29 07:09:55 57° 269° (W) 07:18:24
DANDE 28 Jun 07:01:31 07:06:14 16° 82° (E) 07:10:49 436.750
LilacSat-2 28 Jun 07:01:33 07:05:13 39° 98° (E) 07:08:52 437.200
CUBESAT XI-V 28 Jun 07:09:14 07:11:17 13° 269° (W) 07:13:20 437.345
AIST 2 28 Jun 07:10:03 07:11:18 11° 317° (NW) 07:12:34 435.215
HORYU 2 28 Jun 07:12:35 07:15:42 19° 294° (WNW) 07:18:48 437.375
Cosmos 2499 28 Jun 07:15:00 07:23:40 67° 268° (W) 07:31:46 435.465 / 435.565
CUTE-I 28 Jun 07:16:31 07:21:51 59° 101° (E) 07:27:08 437.470
BRITE-PL 28 Jun 07:21:12 07:25:21 81° 284° (WNW) 07:29:33 437.365/2234.400
DOVE 4 28 Jun 07:22:11 07:25:17 19° 95° (E) 07:28:30 437.250
AO-85 28 Jun 07:30:05 07:34:29 62° 243° (WSW) 07:38:29 145.980
PHONESAT 2.4 28 Jun 07:42:54 07:45:56 69° 161° (SSE) 07:49:00 2401.200-2431.200
NOAA 15 28 Jun 07:46:21 07:51:27 52° 288° (WNW) 07:56:30 137.62
GOMX 1 28 Jun 07:56:45 08:00:58 76° 283° (WNW) 08:05:21 467.674
CUTE 1.7 + AOD 2 28 Jun 08:06:20 08:08:19 13° 91° (E) 08:10:17 437.475
NOAA 18 28 Jun 08:13:26 08:18:36 41° 291° (WNW) 08:23:44 137.9125
STRAND 1 28 Jun 08:17:13 08:21:58 38° 262° (W) 08:26:46 437.568
HO-68 28 Jun 08:17:59 08:24:01 28° 96° (E) 08:29:59 435.675
CINEMA 3 28 Jun 08:20:17 08:24:03 25° 96° (E) 08:27:55 145.822/145.860
CUSAT 1 28 Jun 08:21:40 08:29:34 69° 280° (W) 08:36:19 437.405
Cubesat XI-IV 28 Jun 08:22:21 08:27:11 35° 291° (WNW) 08:32:00 437.490
LilacSat-2 28 Jun 08:37:12 08:39:09 14° 293° (WNW) 08:41:07 437.200
ISS 28 Jun 08:39:33 08:42:38 40° 135° (SE) 08:45:43 145.825
DANDE 28 Jun 08:39:43 08:48:08 84° 97° (E) 08:56:05 436.750
PRISM 28 Jun 08:42:23 08:46:29 63° 74° (ENE) 08:50:36 437.425
AAUSAT CUBESAT 2 28 Jun 08:50:37 08:53:15 16° 93° (E) 08:55:50 437.432
CUTE-I 28 Jun 08:57:58 09:01:22 17° 297° (WNW) 09:04:47 437.470
DOVE 4 28 Jun 08:59:07 09:03:03 34° 288° (WNW) 09:07:10 437.250
UWE-3 28 Jun 09:08:51 09:11:51 17° 93° (E) 09:14:52 435.000/436.395/437.385
Cosmos 2499 28 Jun 09:14:23 09:14:53 10° 287° (WNW) 09:15:22 435.465 / 435.565
M-CUBED/EXP-1 PRIME 28 Jun 09:16:01 09:18:19 15° 100° (E) 09:20:40 437.505
PHONESAT 2.4 28 Jun 09:19:40 09:22:39 48° 356° (N) 09:25:39 2401.200-2431.200
CANX-2 28 Jun 09:20:04 09:24:21 71° 283° (WNW) 09:28:35 2200.000
COMPASS 1 28 Jun 09:23:11 09:27:18 51° 100° (E) 09:31:21 437.405
UNISAT 6 28 Jun 09:28:07 09:29:45 12° 64° (ENE) 09:31:24 437.425
CUTE 1.7 + AOD 2 28 Jun 09:40:16 09:44:23 47° 286° (WNW) 09:48:28 437.475
SEEDS 28 Jun 09:44:45 09:48:57 59° 285° (WNW) 09:53:04 437.485
CUBEBUG 2 28 Jun 09:55:50 10:00:28 83° 102° (ESE) 10:05:12 437.445
CINEMA 3 28 Jun 09:57:10 10:01:07 30° 289° (WNW) 10:05:13 145.822/145.860
HO-68 28 Jun 10:05:01 10:11:55 51° 292° (WNW) 10:18:49 435.675
ANTELSAT 28 Jun 10:05:28 10:09:14 31° 70° (ENE) 10:13:06 437.575/2403.000
AUBIESAT-1 28 Jun 10:09:56 10:13:50 53° 106° (ESE) 10:18:00 437.475
CUSAT 1 28 Jun 10:10:01 10:12:20 12° 294° (WNW) 10:14:33 437.405
ISS 28 Jun 10:16:32 10:19:10 22° 331° (NNW) 10:21:49 145.825
ZACube-1 28 Jun 10:23:31 10:28:04 75° 101° (E) 10:32:39 437.345
AAUSAT CUBESAT 2 28 Jun 10:25:01 10:28:50 35° 288° (WNW) 10:32:37 437.432
DANDE 28 Jun 10:25:40 10:31:38 21° 292° (WNW) 10:37:20 436.750
Cosmos 2491 28 Jun 10:29:29 10:33:13 13° 61° (ENE) 10:36:57 435.465 / 435.565
Oscar 11 28 Jun 10:34:08 10:38:31 78° 284° (WNW) 10:42:51 145.826/435.025
DELFI C3 28 Jun 10:38:47 10:42:40 50° 99° (E) 10:46:32 145.870
FUNcube-1 28 Jun 10:41:16 10:45:49 74° 283° (WNW) 10:50:22 145.935
UWE-3 28 Jun 10:44:06 10:48:27 43° 287° (WNW) 10:52:51 435.000/436.395/437.385
M-CUBED/EXP-1 PRIME 28 Jun 10:49:12 10:52:53 41° 291° (WNW) 10:56:51 437.505
RS-15 28 Jun 10:51:03 11:00:06 29° 102° (ESE) 11:09:30 29.354- 29.394
PHONESAT 2.4 28 Jun 10:56:25 10:59:28 66° 11° (NNE) 11:02:33 2401.200-2431.200
BEESAT 3 28 Jun 10:56:31 10:58:45 14° 46° (NE) 11:00:59 437.485
TIGRISAT 28 Jun 10:56:35 11:00:51 71° 259° (W) 11:05:13 435.000
COMPASS 1 28 Jun 11:00:37 11:02:22 12° 295° (WNW) 11:04:07 437.405
UNISAT 6 28 Jun 11:01:42 11:05:55 57° 260° (W) 11:10:14 437.425
PCSat 28 Jun 11:10:22 11:15:06 29° 53° (NE) 11:19:47 145.827
NANOSAT C BR1 28 Jun 11:17:51 11:21:29 30° 71° (ENE) 11:25:09 145.865
QB50P1 28 Jun 11:20:33 11:24:20 34° 72° (ENE) 11:28:08 145.935-145.965
POPSAT HIP 1 28 Jun 11:23:42 11:27:31 36° 72° (ENE) 11:31:22 437.405
ESTCUBE 1 28 Jun 11:27:42 11:29:56 14° 92° (E) 11:32:09 437.505/2401.250
BEESAT 2 28 Jun 11:33:25 11:36:19 19° 49° (NE) 11:39:13 435.950
QB50P2 28 Jun 11:35:39 11:39:44 55° 74° (ENE) 11:43:52 145.880/145.840
DUCHIFAT 1 28 Jun 11:38:07 11:42:06 48° 73° (ENE) 11:46:08 145.980
POLYITAN 1 28 Jun 11:38:16 11:42:21 56° 75° (ENE) 11:46:29 437.675
HUMSAT D 28 Jun 11:38:52 11:43:11 69° 284° (WNW) 11:47:26 437.325/437.525
ANTELSAT 28 Jun 11:42:47 11:45:58 20° 266° (W) 11:49:14 437.575/2403.000
AUBIESAT-1 28 Jun 11:46:14 11:47:58 13° 298° (WNW) 11:49:45 437.475
JAS-2 28 Jun 11:50:46 11:57:01 29° 66° (ENE) 12:02:50 435.910
DX 1 28 Jun 11:54:14 11:55:41 11° 92° (E) 11:57:09 434.975-435.025
ZACube-1 28 Jun 12:02:52 12:03:43 10° 297° (WNW) 12:04:33 437.345
YUBILEINY 28 Jun 12:07:37 12:14:26 27° 82° (E) 12:21:17 435.215
DELFI C3 28 Jun 12:15:45 12:17:03 11° 295° (WNW) 12:18:21 145.870
Oscar 19 28 Jun 12:19:04 12:20:47 12° 61° (ENE) 12:22:30 437.125/150
CUBEBUG 1 28 Jun 12:19:11 12:23:07 33° 98° (E) 12:27:02 437.445
Cosmos 2491 28 Jun 12:22:55 12:31:40 75° 82° (E) 12:40:21 435.465 / 435.565
VELOX 1 28 Jun 12:26:41 12:30:46 37° 98° (E) 12:34:50 145.980
O/OREOS (USA 219) 28 Jun 12:30:52 12:34:44 28° 62° (ENE) 12:38:36 437.305
BEESAT 3 28 Jun 12:32:53 12:36:44 51° 244° (WSW) 12:40:33 437.485
PHONESAT 2.4 28 Jun 12:33:12 12:35:59 30° 208° (SSW) 12:38:44 2401.200-2431.200
BUGSAT 1 28 Jun 12:34:49 12:38:50 79° 259° (W) 12:42:51 437.445
PCSat 28 Jun 12:53:34 12:58:31 37° 250° (WSW) 13:03:25 145.827
NANOSAT C BR1 28 Jun 12:54:11 12:57:14 19° 266° (W) 13:00:17 145.865
50 SAT 28 Jun 12:55:55 12:59:37 76° 285° (WNW) 13:03:16 437.505
QB50P1 28 Jun 12:57:24 13:00:11 17° 266° (W) 13:02:59 145.935-145.965
RS-15 28 Jun 12:59:59 13:11:20 74° 303° (WNW) 13:23:25 29.354- 29.394
POPSAT HIP 1 28 Jun 13:00:48 13:03:25 16° 267° (W) 13:06:03 437.405
ESTCUBE 1 28 Jun 13:02:39 13:07:00 49° 286° (WNW) 13:11:19 437.505/2401.250
AISAT 28 Jun 13:07:18 13:11:41 69° 285° (WNW) 13:16:02 437.250
UKube-1 28 Jun 13:08:14 13:12:31 69° 101° (E) 13:16:48 .
SPROUT 28 Jun 13:10:05 13:14:16 50° 100° (E) 13:18:26 437.525
BEESAT 2 28 Jun 13:10:35 13:14:15 36° 246° (WSW) 13:17:54 435.950
QB50P2 28 Jun 13:14:57 13:15:51 11° 269° (W) 13:16:46 145.880/145.840
DUCHIFAT 1 28 Jun 13:16:29 13:18:03 12° 268° (W) 13:19:38 145.980
POLYITAN 1 28 Jun 13:17:55 13:18:30 10° 269° (W) 13:19:04 437.675
Cosmos 2504 28 Jun 13:21:29 13:27:31 24° 81° (E) 13:33:48 435.465 / 435.565
DX 1 28 Jun 13:27:57 13:32:11 54° 286° (WNW) 13:36:24 434.975-435.025
JAS-2 28 Jun 13:34:06 13:41:39 56° 260° (W) 13:48:38 435.910
AO-7 28 Jun 13:45:34 13:48:55 13° 48° (NE) 13:52:17 29.400- 29.500
AIST 2 28 Jun 13:51:29 13:55:10 29° 53° (NE) 13:58:49 435.215
Oscar 19 28 Jun 13:54:13 13:59:23 82° 256° (WSW) 14:04:32 437.125/150
CUBEBUG 1 28 Jun 13:56:06 13:59:09 19° 293° (WNW) 14:02:12 437.445
YUBILEINY 28 Jun 14:01:59 14:10:31 60° 281° (W) 14:19:12 435.215
VELOX 1 28 Jun 14:03:57 14:06:56 18° 293° (WNW) 14:09:55 145.980
Gurwin Techsat 1B 28 Jun 14:10:21 14:15:34 61° 73° (ENE) 14:20:48 435.225
O/OREOS (USA 219) 28 Jun 14:10:23 14:13:59 24° 258° (WSW) 14:17:36 437.305
ITAMSAT 1 28 Jun 14:17:37 14:21:49 25° 67° (ENE) 14:26:03 435.822/435.867
Cosmos 2491 28 Jun 14:21:36 14:27:29 21° 280° (W) 14:33:22 435.465 / 435.565
TISAT 1 28 Jun 14:30:44 14:34:57 77° 284° (WNW) 14:39:09 437.305
UKube-1 28 Jun 14:47:41 14:47:58 10° 297° (WNW) 14:48:15 .
SPROUT 28 Jun 14:47:44 14:49:46 13° 295° (WNW) 14:51:48 437.525
SWISSCUBE 28 Jun 14:55:25 14:59:50 36° 98° (E) 15:04:12 437.505
ISS 28 Jun 15:08:54 15:11:45 27° 31° (NNE) 15:14:36 145.825
Cosmos 2504 28 Jun 15:12:01 15:20:00 66° 280° (W) 15:28:36 435.465 / 435.565
RS-15 28 Jun 15:17:12 15:26:24 25° 331° (NNW) 15:35:58 29.354- 29.394
BEESAT 28 Jun 15:20:28 15:25:13 60° 101° (E) 15:29:56 436.000
ITUPSAT 1 28 Jun 15:21:28 15:26:15 60° 101° (E) 15:30:59 437.325
AIST 2 28 Jun 15:30:12 15:33:29 23° 248° (WSW) 15:36:47 435.215
AO-7 28 Jun 15:31:51 15:40:02 63° 68° (ENE) 15:48:15 29.400- 29.500
JUGNU 28 Jun 15:38:33 15:39:51 11° 170° (S) 15:41:09 437.505
Gurwin Techsat 1B 28 Jun 15:52:54 15:55:52 15° 268° (W) 15:58:52 435.225
ITAMSAT 1 28 Jun 15:56:17 16:01:04 37° 262° (W) 16:05:53 435.822/435.867
MOZHAYETS 4 28 Jun 16:00:57 16:03:56 17° 93° (E) 16:06:53
KKS-1 28 Jun 16:10:15 16:13:44 22° 95° (E) 16:17:11 437.445
SO-50 28 Jun 16:10:27 16:15:20 76° 119° (ESE) 16:20:14 436.795
HORYU 2 28 Jun 16:31:38 16:35:25 28° 69° (ENE) 16:39:13 437.375
SWISSCUBE 28 Jun 16:33:43 16:37:23 22° 293° (WNW) 16:41:01 437.505
STARS 28 Jun 16:42:14 16:45:51 24° 96° (E) 16:49:27 437.465
ISS 28 Jun 16:45:17 16:48:11 29° 227° (SW) 16:51:03 145.825
BEESAT 28 Jun 17:00:02 17:02:28 14° 297° (WNW) 17:04:54 436.000
ITUPSAT 1 28 Jun 17:01:05 17:03:32 14° 297° (WNW) 17:05:59 437.325
Cosmos 2504 28 Jun 17:12:59 17:15:18 11° 302° (WNW) 17:17:40 435.465 / 435.565
JUGNU 28 Jun 17:25:13 17:28:00 13° 180° (S) 17:30:48 437.505
NOAA 15 28 Jun 17:26:01 17:30:13 24° 66° (ENE) 17:34:24 137.62
AO-7 28 Jun 17:26:32 17:33:13 27° 265° (W) 17:39:59 29.400- 29.500
CUBESAT XI-V 28 Jun 17:28:39 17:31:34 16° 92° (E) 17:34:27 437.345
MOZHAYETS 4 28 Jun 17:36:52 17:41:16 43° 288° (WNW) 17:45:37
RS-15 28 Jun 17:37:46 17:45:16 18° 8° (N) 17:52:51 29.354- 29.394
LilacSat-2 28 Jun 17:42:58 17:45:14 15° 68° (ENE) 17:47:30 437.200
KKS-1 28 Jun 17:46:24 17:50:17 30° 290° (WNW) 17:54:10 437.445
AIST 1 28 Jun 17:49:06 17:53:23 64° 279° (W) 17:57:40
SO-50 28 Jun 17:53:26 17:56:21 16° 316° (NW) 17:59:18 436.795
NOAA 18 28 Jun 17:57:39 18:02:41 39° 69° (ENE) 18:07:45 137.9125
Cosmos 2499 28 Jun 17:58:11 18:03:43 20° 79° (E) 18:09:28 435.465 / 435.565
Cubesat XI-IV 28 Jun 18:02:37 18:07:30 38° 70° (ENE) 18:12:25 437.490
GONETS M04 28 Jun 18:04:17 18:11:53 35° 86° (E) 18:19:29
HORYU 2 28 Jun 18:08:24 18:11:56 23° 264° (W) 18:15:30 437.375
STARS 28 Jun 18:18:26 18:22:07 27° 291° (WNW) 18:25:49 437.465
DOVE 4 28 Jun 18:27:06 18:29:33 15° 67° (ENE) 18:31:58 437.250
BRITE-PL 28 Jun 18:29:24 18:34:33 89° 260° (W) 18:39:19 437.365/2234.400
CUTE-I 28 Jun 18:36:24 18:41:44 80° 76° (ENE) 18:47:07 437.470
SRMSAT 28 Jun 18:40:25 18:42:48 12° 175° (S) 18:45:10 437.500
HO-68 28 Jun 18:46:25 18:50:58 18° 57° (ENE) 18:55:31 435.675
CUSAT 1 28 Jun 19:01:29 19:05:00 67° 79° (E) 19:07:51 437.405
GOMX 1 28 Jun 19:02:50 19:07:31 88° 262° (W) 19:11:55 467.674
CUBESAT XI-V 28 Jun 19:04:45 19:09:08 43° 287° (WNW) 19:13:28 437.345
NOAA 15 28 Jun 19:04:48 19:09:44 39° 261° (W) 19:14:40 137.62
JUGNU 28 Jun 19:15:12 19:16:09 10° 191° (S) 19:17:05 437.505
LilacSat-2 28 Jun 19:15:52 19:19:15 31° 263° (W) 19:22:40 437.200
CINEMA 3 28 Jun 19:21:30 19:24:03 16° 67° (ENE) 19:26:37 145.822/145.860
DANDE 28 Jun 19:25:11 19:29:48 45° 74° (ENE) 19:33:17 436.750
NOAA 18 28 Jun 19:39:00 19:43:24 25° 264° (W) 19:47:52 137.9125
Cubesat XI-IV 28 Jun 19:43:19 19:47:38 25° 265° (W) 19:51:59 437.490
Cosmos 2499 28 Jun 19:47:27 19:55:42 78° 278° (W) 20:04:32 435.465 / 435.565
RS-15 28 Jun 19:51:52 20:03:01 37° 41° (NE) 20:14:05 29.354- 29.394
GONETS M04 28 Jun 20:00:10 20:08:24 46° 284° (WNW) 20:16:42
DOVE 4 28 Jun 20:02:50 20:06:57 41° 261° (W) 20:10:57 437.250
M-CUBED/EXP-1 PRIME 28 Jun 20:03:17 20:03:47 10° 61° (ENE) 20:04:17 437.505
UWE-3 28 Jun 20:07:11 20:07:16 10° 63° (ENE) 20:07:23 435.000/436.395/437.385
CANX-2 28 Jun 20:10:30 20:14:43 62° 75° (ENE) 20:18:59 2200.000
COMPASS 1 28 Jun 20:12:15 20:15:48 27° 71° (ENE) 20:19:23 437.405
CUTE-I 28 Jun 20:20:55 20:22:21 11° 270° (W) 20:23:46 437.470
SRMSAT 28 Jun 20:28:39 20:31:05 13° 185° (S) 20:33:31 437.500
STRAND 1 28 Jun 20:29:06 20:34:17 84° 106° (ESE) 20:39:25 437.568
CUTE 1.7 + AOD 2 28 Jun 20:30:25 20:34:41 88° 257° (WSW) 20:39:01 437.475
HO-68 28 Jun 20:30:38 20:37:48 83° 254° (WSW) 20:45:01 435.675
SEEDS 28 Jun 20:34:03 20:38:17 72° 75° (ENE) 20:42:31 437.485
CUBEBUG 2 28 Jun 20:52:14 20:56:15 51° 74° (ENE) 21:00:23 437.445
AUBIESAT-1 28 Jun 20:55:15 20:58:22 41° 69° (ENE) 21:01:31 437.475
CINEMA 3 28 Jun 20:57:05 21:00:55 36° 262° (W) 21:04:46 145.822/145.860
AAUSAT CUBESAT 2 28 Jun 21:12:35 21:16:45 72° 258° (WSW) 21:20:58 437.432
ZACube-1 28 Jun 21:17:31 21:21:29 43° 73° (ENE) 21:25:33 437.345
DELFI C3 28 Jun 21:23:14 21:26:26 23° 70° (ENE) 21:29:39 145.870
Oscar 11 28 Jun 21:26:38 21:30:54 62° 75° (ENE) 21:35:12 145.826/435.025
FUNcube-1 28 Jun 21:34:45 21:38:53 65° 75° (ENE) 21:43:08 145.935
M-CUBED/EXP-1 PRIME 28 Jun 21:34:59 21:38:01 35° 256° (WSW) 21:41:03 437.505
UWE-3 28 Jun 21:38:59 21:43:07 65° 259° (W) 21:47:22 435.000/436.395/437.385
AO-85 28 Jun 21:40:51 21:46:15 69° 118° (ESE) 21:51:32 145.980
Cosmos 2499 28 Jun 21:46:05 21:50:24 15° 299° (WNW) 21:54:51 435.465 / 435.565
COMPASS 1 28 Jun 21:48:02 21:51:19 22° 265° (W) 21:54:38 437.405
PRISM 28 Jun 22:00:56 22:04:57 59° 286° (WNW) 22:08:56 437.425
RS-15 28 Jun 22:04:20 22:16:38 74° 245° (WSW) 22:28:44 29.354- 29.394
STRAND 1 28 Jun 22:11:06 22:12:42 11° 300° (WNW) 22:14:17 437.568
YUBILEINY 28 Jun 22:22:33 22:24:16 11° 58° (ENE) 22:25:59 435.215
HO-68 28 Jun 22:23:48 22:26:25 12° 271° (W) 22:29:03 435.675
ESTCUBE 1 28 Jun 22:26:52 22:28:06 11° 63° (ENE) 22:29:21 437.505/2401.250
HUMSAT D 28 Jun 22:27:54 22:31:59 62° 76° (ENE) 22:36:11 437.325/437.525
CUBEBUG 2 28 Jun 22:32:00 22:33:13 11° 270° (W) 22:34:27 437.445
TIGRISAT 28 Jun 22:50:00 22:54:01 28° 96° (E) 22:58:02 435.000
UNISAT 6 28 Jun 22:55:04 22:59:19 34° 97° (E) 23:03:33 437.425
ZACube-1 28 Jun 22:55:52 22:58:00 14° 269° (W) 23:00:10 437.345
DELFI C3 28 Jun 22:57:54 23:01:10 24° 265° (W) 23:04:28 145.870
CUBEBUG 1 28 Jun 23:13:41 23:17:07 23° 69° (ENE) 23:20:33 437.445
VELOX 1 28 Jun 23:22:23 23:26:05 27° 69° (ENE) 23:29:46 145.980
AO-85 28 Jun 23:23:24 23:27:13 19° 314° (NW) 23:30:56 145.980
QB50P2 28 Jun 23:25:20 23:25:58 10° 91° (E) 23:26:37 145.880/145.840
POLYITAN 1 28 Jun 23:27:40 23:28:37 11° 91° (E) 23:29:34 437.675
Cosmos 2491 28 Jun 23:29:40 23:34:24 16° 78° (ENE) 23:39:08 435.465 / 435.565
50 SAT 28 Jun 23:31:54 23:35:16 33° 72° (ENE) 23:38:37 437.505
ANTELSAT 28 Jun 23:34:33 23:39:14 89° 289° (WNW) 23:43:56 437.575/2403.000
ESTCUBE 1 28 Jun 23:59:46 00:04:17 70° 258° (WSW) 00:08:50 437.505/2401.250
UKube-1 29 Jun 00:00:46 00:04:52 44° 72° (ENE) 00:08:58 .
SPROUT 29 Jun 00:02:00 00:05:41 30° 71° (ENE) 00:09:24 437.525
AISAT 29 Jun 00:02:26 00:06:51 82° 76° (ENE) 00:11:15 437.250
